Location: Ellerstadt
(49.4644°N, 8.2615°E)
Time: 12:43:26
(UTC+00:00)

Resurs 01 Rocket - Visible Passes

Search period start: 20 September 2021 00:00
Search period end: 30 September 2021 00:00
Orbit: 633 x 645 km, 97.9° (Epoch: 19 September)

Date Brightness Start Highest point End Pass type
(mag) Time Alt. Az. Time Alt. Az. Time Alt. Az.
20 Sep 1.6 19:37:01 54° ESE 19:37:33 58° ENE 19:41:54 10° N visible
20 Sep 4.0 21:14:36 18° W 21:14:36 18° W 21:17:25 10° NW visible
21 Sep 3.5 18:23:00 12° E 18:24:48 14° ENE 18:27:08 10° NNE visible
21 Sep 1.5 20:00:35 84° SW 20:00:40 85° WSW 20:05:06 10° NNW visible
21 Sep 4.5 21:38:09 10° W 21:38:09 10° W 21:38:46 10° WNW visible
22 Sep 3.0 18:46:34 20° E 18:47:41 22° ENE 18:51:02 10° NNE visible
22 Sep 2.3 20:24:08 50° W 20:24:08 50° W 20:28:11 10° NNW visible
23 Sep 2.3 19:10:07 32° E 19:10:38 33° ENE 19:14:36 10° N visible
23 Sep 3.3 20:47:41 30° W 20:47:41 30° W 20:51:05 10° NNW visible
24 Sep 1.7 19:33:40 54° ENE 19:33:40 54° ENE 19:37:59 10° N visible
24 Sep 4.0 21:11:15 18° WNW 21:11:15 18° WNW 21:13:40 10° NW visible
25 Sep 3.5 18:19:40 12° ENE 18:20:58 13° NE 18:23:04 10° NNE visible
25 Sep 1.7 19:57:14 72° N 19:57:14 72° N 20:01:14 10° NNW visible
25 Sep 4.6 21:34:48 11° WNW 21:34:48 11° WNW 21:35:27 10° WNW visible
26 Sep 3.0 18:43:13 20° ENE 18:43:50 20° ENE 18:47:03 10° NNE visible
26 Sep 2.5 20:20:48 47° WNW 20:20:48 47° WNW 20:24:19 10° NNW visible
27 Sep 2.5 19:06:47 31° ENE 19:06:47 31° ENE 19:10:40 10° N visible
27 Sep 3.4 20:44:21 29° WNW 20:44:21 29° WNW 20:47:15 10° NNW visible
28 Sep 2.0 19:30:20 46° NE 19:30:20 46° NE 19:34:04 10° N visible
28 Sep 4.1 21:07:54 18° WNW 21:07:54 18° WNW 21:09:54 10° NW visible
29 Sep 3.6 18:16:19 12° ENE 18:17:07 12° NE 18:18:55 10° NNE visible
29 Sep 2.1 19:53:53 54° N 19:53:53 54° N 19:57:20 10° NNW visible
29 Sep 4.6 21:31:28 11° WNW 21:31:28 11° WNW 21:31:55 10° WNW visible
